Kazan, Russia

6:30 AM MSK on December 12, 2019 (GMT +0300)
Kazan

Weather History for UWKD - October, 2019

Change the Weather History Date:

Sunday, October 13, 2019

  Actual Average (WUND) Record (WUND)
Temperature  
Mean Temperature 48 °F -  
Max Temperature 53 °F - - (-1)
Min Temperature 44 °F - - (-1)
Degree Days  
Heating Degree Days 16    
Moisture  
Dew Point 43 °F    
Average Humidity 81    
Maximum Humidity 96    
Minimum Humidity 58    
Precipitation  
Precipitation 0.00 in - - ()
Sea Level Pressure  
Sea Level Pressure 29.67 in    
Wind  
Wind Speed 10 mph ()    
Max Wind Speed 16 mph    
Max Gust Speed 27 mph    
Visibility 6.1 miles    
Events Rain    
Averages and records for this station are not official NWS values.
T = Trace of Precipitation, MM = Missing Value Source: Averaged Metar Reports

Daily Weather History Graph

Daily Weather History Graph

Search for Another Location

Airport or City:

Astronomy

Oct. 13, 2019 Rise Set
Actual Time 6:08 AM MSK 4:49 PM MSK
Civil Twilight 5:31 AM MSK 5:26 PM MSK
Nautical Twilight 4:48 AM MSK 6:08 PM MSK
Astronomical Twilight 4:05 AM MSK 6:51 PM MSK
Moon 5:14 PM MSK (10/13) 5:01 AM MSK (10/13)
Length of Visible Light 11h 54m
Length of Day
10h 40m
Full, 100% of the Moon is Illuminated
Oct 13
Full
Oct 14
Full
Oct 21
Last Quarter
Oct 28
New
Nov 4
First Quarter

Hourly Weather History & Observations

Time (MSK) Temp. Windchill Dew Point Humidity Pressure Visibility Wind Dir Wind Speed Gust Speed Precip Events Conditions
12:00 AM 45 °F - 42 °F 85% 29.89 in 6 mi SSE 4.5 mph - -   Clear
12:00 AM 44.6 °F 39.8 °F 41.0 °F 87% 29.86 in - South 8.9 mph - N/A   Clear
1:00 AM 46.4 °F 40.5 °F 41.0 °F 81% 29.83 in - South 13.4 mph - N/A   Clear
1:30 AM 48.2 °F - 41.0 °F 76% 29.83 in 6.2 mi South 8.9 mph 20.1 mph N/A   Scattered Clouds
2:00 AM 46.4 °F 40.5 °F 41.0 °F 81% 29.80 in 6.2 mi South 13.4 mph - N/A Rain Light Rain
2:30 AM 46.4 °F 40.5 °F 42.8 °F 87% 29.77 in 6.2 mi South 13.4 mph - N/A Rain Light Rain Showers
3:00 AM 46 °F - 44 °F 91% 29.78 in 6 mi SSW 4.5 mph - - Rain Light Rain
3:00 AM 46.4 °F 41.2 °F 42.8 °F 87% 29.77 in 6.2 mi South 11.2 mph 22.4 mph N/A Rain Light Rain Showers
3:30 AM 46.4 °F 42.0 °F 42.8 °F 87% 29.74 in 6.2 mi South 8.9 mph 20.1 mph N/A Rain Light Rain Showers
4:00 AM 46.4 °F 41.2 °F 44.6 °F 93% 29.74 in 6.2 mi South 11.2 mph 22.4 mph N/A Rain Light Rain Showers
4:30 AM 46.4 °F 40.5 °F 44.6 °F 93% 29.71 in 6.2 mi South 13.4 mph 24.6 mph N/A Rain Light Rain Showers
5:00 AM 46.4 °F 40.5 °F 44.6 °F 93% 29.71 in 6.2 mi South 13.4 mph 24.6 mph N/A Rain Light Rain Showers
5:30 AM 46.4 °F 39.9 °F 44.6 °F 93% 29.68 in 5.6 mi SSW 15.7 mph 26.8 mph N/A Rain Light Rain Showers
6:00 AM 47 °F - 46 °F 96% 29.69 in 6 mi SSW 4.5 mph - -   Overcast
6:00 AM 46.4 °F 39.9 °F 44.6 °F 93% 29.68 in 6.2 mi SSW 15.7 mph 26.8 mph N/A Rain Light Rain Showers
7:00 AM 48.2 °F - 44.6 °F 87% 29.65 in 6.2 mi SSW 15.7 mph 26.8 mph N/A   Overcast
7:30 AM 48.2 °F - 44.6 °F 87% 29.62 in 6.2 mi SSW 15.7 mph 26.8 mph N/A Rain Light Rain
8:30 AM 48.2 °F - 44.6 °F 87% 29.62 in 4.3 mi SW 11.2 mph 22.4 mph N/A Rain Light Rain
9:00 AM 48.2 °F - 44.6 °F 87% 29.62 in 5.6 mi SW 13.4 mph - N/A Rain Light Rain
9:30 AM 48.2 °F - 46.4 °F 93% 29.59 in 6.2 mi SW 11.2 mph - N/A Rain Light Rain
10:00 AM 48.2 °F - 46.4 °F 93% 29.59 in 6.2 mi SW 11.2 mph - N/A Rain Light Rain
10:30 AM 48.2 °F - 46.4 °F 93% 29.59 in 6.2 mi SW 8.9 mph - N/A Rain Light Rain
11:00 AM 50.0 °F - 46.4 °F 87% 29.59 in 6.2 mi WSW 11.2 mph - N/A Rain Light Rain
11:30 AM 50.0 °F - 48.2 °F 94% 29.59 in 6.2 mi WSW 11.2 mph - N/A   Mostly Cloudy
12:00 PM 52 °F - 48 °F 82% 29.60 in 6 mi WSW 6.7 mph - - Rain Light Rain
12:00 PM 53.6 °F - 48.2 °F 82% 29.59 in 6.2 mi WSW 13.4 mph - N/A   Mostly Cloudy
1:00 PM 51.8 °F - 42.8 °F 71% 29.59 in 6.2 mi West 11.2 mph 22.4 mph N/A   Mostly Cloudy
1:30 PM 51.8 °F - 42.8 °F 71% 29.59 in 6.2 mi West 11.2 mph - N/A   Mostly Cloudy
2:00 PM 51.8 °F - 42.8 °F 71% 29.59 in 6.2 mi WSW 11.2 mph - N/A   Mostly Cloudy
3:00 PM 52 °F - 42 °F 58% 29.63 in 6 mi West 6.7 mph - -   Partly Cloudy
3:00 PM 53.6 °F - 42.8 °F 67% 29.62 in 6.2 mi West 13.4 mph - N/A   Mostly Cloudy
3:30 PM 51.8 °F - 41.0 °F 67% 29.62 in 6.2 mi West 15.7 mph - N/A   Mostly Cloudy
4:00 PM 51.8 °F - 41.0 °F 67% 29.62 in 6.2 mi West 15.7 mph 26.8 mph N/A   Mostly Cloudy
5:00 PM 50.0 °F - 39.2 °F 66% 29.62 in 6.2 mi WSW 13.4 mph 24.6 mph N/A   Mostly Cloudy
6:00 PM 51 °F - 41 °F 58% 29.66 in 6 mi West 6.7 mph - -  
6:00 PM 50.0 °F - 39.2 °F 66% 29.65 in 6.2 mi West 13.4 mph 24.6 mph N/A   Mostly Cloudy
6:30 PM 50.0 °F - 41.0 °F 71% 29.65 in 6.2 mi West 13.4 mph 24.6 mph N/A   Scattered Clouds
8:00 PM 48.2 °F - 41.0 °F 76% 29.65 in 6.2 mi West 13.4 mph 24.6 mph N/A Rain Light Rain Showers
8:30 PM 48.2 °F - 41.0 °F 76% 29.65 in 6.2 mi West 11.2 mph 22.4 mph N/A   Scattered Clouds
9:00 PM 49 °F - 44 °F 76% 29.68 in 6 mi West 6.7 mph - - Rain Light Rain Showers
9:00 PM 48.2 °F - 41.0 °F 76% 29.65 in 6.2 mi West 13.4 mph 24.6 mph N/A   Scattered Clouds
10:00 PM 50.0 °F - 41.0 °F 71% 29.65 in 6.2 mi West 11.2 mph 22.4 mph N/A   Scattered Clouds